BER14M EDJA-EDDN

Flight info

Callsign BER14M
Flight time 0h 34m
Altitude 20000
Route LUPOL5B LUPOL Z79 SUDEN/N0313F190 Z79 GUPIN N869 LETKU LETKU1T
Aircraft DH8D/M-SDE2E3FGRY/H

Departure

Time 2026-04-29 13:48
Airport Memmingen Allgau Airport (EDJA)

Arrival

Time 2026-04-29 14:22
Airport Nuremberg Airport (EDDN)
Time Latitude Longitude Altitude Speed Heading
2026-04-29 13:11 47.98747 10.22795 2076 ft 0 kts 54°
2026-04-29 13:44 47.98746 10.22809 2075 ft 1 kts 144°
2026-04-29 13:44 47.98703 10.22786 2076 ft 9 kts 248°
2026-04-29 13:45 47.98664 10.22713 2077 ft 9 kts 188°
2026-04-29 13:45 47.98609 10.22713 2077 ft 7 kts 179°
2026-04-29 13:45 47.98553 10.22714 2077 ft 7 kts 180°
2026-04-29 13:45 47.98489 10.22674 2077 ft 12 kts 232°
2026-04-29 13:46 47.98445 10.22565 2078 ft 12 kts 239°
2026-04-29 13:46 47.98377 10.22559 2078 ft 10 kts 150°
2026-04-29 13:46 47.98353 10.22623 2079 ft 0 kts 60°
2026-04-29 13:47 47.98354 10.22623 2079 ft 1 kts 60°
2026-04-29 13:47 47.98427 10.22809 2078 ft 59 kts 58°
2026-04-29 13:48 47.98776 10.23681 2068 ft 133 kts 59°
2026-04-29 13:48 47.99274 10.25006 2333 ft 152 kts 62°
2026-04-29 13:48 47.99758 10.26428 2954 ft 156 kts 64°
2026-04-29 13:48 48.00267 10.27846 3626 ft 159 kts 61°
2026-04-29 13:49 48.00806 10.29320 4250 ft 165 kts 62°
2026-04-29 13:49 48.01435 10.30799 4735 ft 177 kts 58°
2026-04-29 13:49 48.02081 10.32374 5304 ft 181 kts 60°
2026-04-29 13:49 48.02728 10.33945 5972 ft 181 kts 56°
2026-04-29 13:50 48.03456 10.35488 6580 ft 186 kts 51°
2026-04-29 13:50 48.04438 10.36695 7197 ft 191 kts 19°
2026-04-29 13:50 48.05773 10.36526 7735 ft 205 kts 341°
2026-04-29 13:50 48.07068 10.35556 8321 ft 211 kts 330°
2026-04-29 13:51 48.08253 10.34311 9050 ft 211 kts 323°
2026-04-29 13:51 48.09392 10.32985 9702 ft 209 kts 328°
2026-04-29 13:51 48.10489 10.31570 10342 ft 214 kts 304°
2026-04-29 13:51 48.11119 10.29559 10911 ft 218 kts 292°
2026-04-29 13:52 48.11680 10.27448 11437 ft 220 kts 293°
2026-04-29 13:52 48.12251 10.25318 11962 ft 221 kts 292°
2026-04-29 13:52 48.12831 10.23170 12397 ft 226 kts 293°
2026-04-29 13:52 48.13419 10.21006 12881 ft 228 kts 293°
2026-04-29 13:53 48.14017 10.18807 13359 ft 229 kts 293°
2026-04-29 13:53 48.14620 10.16605 13853 ft 229 kts 293°
2026-04-29 13:53 48.15228 10.14386 14331 ft 230 kts 293°
2026-04-29 13:53 48.15832 10.12187 14796 ft 229 kts 294°
2026-04-29 13:54 48.16409 10.09977 15197 ft 231 kts 285°
2026-04-29 13:54 48.16919 10.07661 15496 ft 234 kts 291°
2026-04-29 13:54 48.17579 10.05489 16025 ft 228 kts 302°
2026-04-29 13:54 48.18316 10.03378 16351 ft 232 kts 300°
2026-04-29 13:55 48.18998 10.01211 16779 ft 232 kts 296°
2026-04-29 13:55 48.19630 9.98972 17172 ft 233 kts 295°
2026-04-29 13:55 48.20258 9.96726 17553 ft 234 kts 295°
2026-04-29 13:55 48.20880 9.94482 17934 ft 234 kts 295°
2026-04-29 13:56 48.21498 9.92249 18304 ft 235 kts 295°
2026-04-29 13:56 48.22221 9.90046 18679 ft 234 kts 303°
2026-04-29 13:56 48.23067 9.88005 19021 ft 235 kts 304°
2026-04-29 13:56 48.23967 9.85863 19147 ft 246 kts 304°
2026-04-29 13:57 48.24896 9.83647 19178 ft 259 kts 304°
2026-04-29 13:57 48.25879 9.81292 19190 ft 272 kts 304°
2026-04-29 13:57 48.26900 9.78834 19201 ft 284 kts 304°
2026-04-29 13:57 48.27957 9.76305 19186 ft 293 kts 305°
2026-04-29 13:58 48.29406 9.74145 19166 ft 297 kts 330°
2026-04-29 13:58 48.31402 9.73346 19194 ft 302 kts 354°
2026-04-29 13:58 48.33512 9.73244 19175 ft 308 kts 358°
2026-04-29 13:58 48.35676 9.73226 19186 ft 313 kts 359°
2026-04-29 13:59 48.37875 9.73241 19168 ft 317 kts 359°
2026-04-29 13:59 48.40078 9.73273 19181 ft 320 kts 360°
2026-04-29 13:59 48.42318 9.73318 19178 ft 322 kts
2026-04-29 13:59 48.44534 9.73372 19180 ft 323 kts
2026-04-29 14:00 48.46797 9.73432 19183 ft 324 kts
2026-04-29 14:00 48.49072 9.73498 19175 ft 325 kts
2026-04-29 14:00 48.51310 9.73566 19174 ft 326 kts
2026-04-29 14:00 48.53583 9.73638 19172 ft 326 kts
2026-04-29 14:01 48.55849 9.73711 19172 ft 326 kts
2026-04-29 14:01 48.58106 9.73785 19174 ft 325 kts
2026-04-29 14:01 48.60363 9.73860 19171 ft 325 kts
2026-04-29 14:01 48.62620 9.73935 19175 ft 325 kts
2026-04-29 14:02 48.64876 9.74012 19184 ft 325 kts
2026-04-29 14:02 48.67152 9.74090 19182 ft 325 kts
2026-04-29 14:02 48.69409 9.74167 19176 ft 325 kts
2026-04-29 14:02 48.71648 9.74245 19176 ft 325 kts
2026-04-29 14:03 48.73911 9.74323 19181 ft 325 kts
2026-04-29 14:03 48.76181 9.74402 19187 ft 325 kts
2026-04-29 14:03 48.78444 9.74480 19192 ft 325 kts
2026-04-29 14:03 48.80699 9.74559 19191 ft 325 kts
2026-04-29 14:04 48.82946 9.74637 19188 ft 325 kts
2026-04-29 14:04 48.85207 9.74716 19198 ft 325 kts
2026-04-29 14:04 48.87452 9.75158 19168 ft 325 kts 18°
2026-04-29 14:04 48.89311 9.77009 19209 ft 326 kts 43°
2026-04-29 14:05 48.90805 9.79618 19202 ft 328 kts 49°
2026-04-29 14:05 48.92241 9.82279 19211 ft 328 kts 49°
2026-04-29 14:05 48.93682 9.84973 19206 ft 329 kts 49°
2026-04-29 14:05 48.95136 9.87698 19212 ft 329 kts 49°
2026-04-29 14:06 48.96574 9.90398 19204 ft 329 kts 49°
2026-04-29 14:06 48.98014 9.93104 19149 ft 331 kts 49°
2026-04-29 14:06 48.99453 9.95808 18768 ft 327 kts 49°
2026-04-29 14:06 49.00866 9.98463 18313 ft 321 kts 49°
2026-04-29 14:07 49.02261 10.01086 17860 ft 316 kts 49°
2026-04-29 14:07 49.03628 10.03663 17426 ft 312 kts 49°
2026-04-29 14:07 49.04983 10.06216 16984 ft 308 kts 49°
2026-04-29 14:07 49.06309 10.08721 16583 ft 305 kts 49°
2026-04-29 14:08 49.07636 10.11229 16174 ft 303 kts 49°
2026-04-29 14:08 49.08944 10.13705 15752 ft 301 kts 49°
2026-04-29 14:08 49.10259 10.16198 15299 ft 299 kts 49°
2026-04-29 14:08 49.11562 10.18668 14862 ft 298 kts 49°
2026-04-29 14:09 49.12840 10.21096 14454 ft 296 kts 49°
2026-04-29 14:09 49.14131 10.23531 14106 ft 292 kts 47°
2026-04-29 14:09 49.15503 10.25782 13781 ft 288 kts 43°
2026-04-29 14:09 49.16902 10.27940 13462 ft 286 kts 43°
2026-04-29 14:10 49.18297 10.30088 13097 ft 284 kts 43°
2026-04-29 14:10 49.19675 10.32214 12733 ft 283 kts 43°
2026-04-29 14:10 49.21070 10.34278 12385 ft 280 kts 39°
2026-04-29 14:10 49.22625 10.36072 12031 ft 278 kts 34°
2026-04-29 14:11 49.24204 10.37787 11664 ft 277 kts 34°
2026-04-29 14:11 49.25764 10.39468 11318 ft 275 kts 34°
2026-04-29 14:11 49.27323 10.41140 10956 ft 274 kts 34°
2026-04-29 14:11 49.28886 10.42807 10591 ft 273 kts 34°
2026-04-29 14:12 49.30447 10.44464 10246 ft 272 kts 34°
2026-04-29 14:12 49.31996 10.46099 9879 ft 271 kts 34°
2026-04-29 14:12 49.33546 10.47729 9527 ft 270 kts 34°
2026-04-29 14:12 49.35081 10.49330 9178 ft 269 kts 34°
2026-04-29 14:13 49.36635 10.50939 8826 ft 268 kts 34°
2026-04-29 14:13 49.38177 10.52520 8482 ft 267 kts 34°
2026-04-29 14:13 49.39702 10.54067 8134 ft 259 kts 34°
2026-04-29 14:13 49.41171 10.55538 7785 ft 248 kts 34°
2026-04-29 14:14 49.42595 10.56949 7425 ft 241 kts 34°
2026-04-29 14:14 49.44007 10.58333 7069 ft 240 kts 34°
2026-04-29 14:14 49.45415 10.59703 6742 ft 238 kts 34°
2026-04-29 14:14 49.46811 10.61044 6397 ft 237 kts 34°
2026-04-29 14:15 49.48206 10.62367 6054 ft 236 kts 34°
2026-04-29 14:15 49.49580 10.63667 5713 ft 230 kts 34°
2026-04-29 14:15 49.50719 10.65302 5343 ft 218 kts 60°
2026-04-29 14:15 49.51232 10.67416 5005 ft 210 kts 74°
2026-04-29 14:16 49.51606 10.69567 4655 ft 204 kts 74°
2026-04-29 14:16 49.51959 10.71635 4297 ft 199 kts 74°
2026-04-29 14:16 49.52298 10.73651 4077 ft 187 kts 75°
2026-04-29 14:16 49.52519 10.75515 3982 ft 169 kts 85°
2026-04-29 14:17 49.52531 10.77219 3936 ft 146 kts 86°
2026-04-29 14:17 49.52549 10.78631 3851 ft 122 kts 84°
2026-04-29 14:17 49.52565 10.79936 3402 ft 128 kts 88°
2026-04-29 14:17 49.52433 10.81361 3306 ft 135 kts 96°
2026-04-29 14:18 49.52271 10.82792 3380 ft 135 kts 94°
2026-04-29 14:18 49.52142 10.84202 3538 ft 129 kts 94°
2026-04-29 14:18 49.52010 10.85511 3696 ft 123 kts 94°
2026-04-29 14:18 49.51876 10.86898 3589 ft 135 kts 94°
2026-04-29 14:19 49.51745 10.88357 3382 ft 141 kts 94°
2026-04-29 14:19 49.51611 10.89809 3115 ft 133 kts 94°
2026-04-29 14:19 49.51479 10.91193 2898 ft 132 kts 93°
2026-04-29 14:19 49.51342 10.92574 2732 ft 127 kts 95°
2026-04-29 14:20 49.51215 10.93894 2515 ft 121 kts 91°
2026-04-29 14:20 49.51079 10.95229 2452 ft 131 kts 96°
2026-04-29 14:20 49.50935 10.96707 2279 ft 142 kts 98°
2026-04-29 14:20 49.50810 10.98129 2019 ft 129 kts 97°
2026-04-29 14:21 49.50675 10.99478 1845 ft 127 kts 95°
2026-04-29 14:21 49.50545 11.00888 1783 ft 138 kts 96°
2026-04-29 14:21 49.50401 11.02322 1588 ft 135 kts 94°
2026-04-29 14:21 49.50269 11.03727 1362 ft 129 kts 97°
2026-04-29 14:22 49.50139 11.05068 1166 ft 126 kts 96°
2026-04-29 14:22 49.50011 11.06414 1031 ft 126 kts 97°
2026-04-29 14:22 49.49888 11.07640 1028 ft 95 kts 98°
2026-04-29 14:22 49.49817 11.08345 1037 ft 34 kts 99°
2026-04-29 14:23 49.49784 11.08548 1040 ft 14 kts 140°
2026-04-29 14:23 49.49702 11.08549 1038 ft 7 kts 213°
2026-04-29 14:23 49.49685 11.08527 1038 ft 0 kts 231°
2026-04-29 14:23 49.49678 11.08515 1037 ft 3 kts 231°
2026-04-29 14:24 49.49654 11.08469 1036 ft 5 kts 232°
2026-04-29 14:24 49.49625 11.08410 1034 ft 8 kts 232°
2026-04-29 14:24 49.49573 11.08352 1032 ft 10 kts 192°
2026-04-29 14:24 49.49536 11.08280 1030 ft 10 kts 279°
2026-04-29 14:25 49.49547 11.08171 1030 ft 10 kts 279°
2026-04-29 14:25 49.49558 11.08062 1030 ft 10 kts 277°
2026-04-29 14:25 49.49549 11.08042 1030 ft 3 kts 163°
2026-04-29 14:25 49.49518 11.08050 1030 ft 4 kts 185°
2026-04-29 14:26 49.49495 11.08045 1030 ft 0 kts 189°